RH
43 42 41 40 38 36 34 35 38 39 42 47 52 54 54 57 65 68 66 58 48 46 46 43 40 36 32 34 34 34 37 40 45 47 46 49 53 52 53 60 64 65 65 61 60 62 62 65 70 72 72 71 73 75 75 76 79 78 75 76 75 75 78 79 79 79 80 81 81 80 78 78 81 83
51 51 50 48 45 42 40 37 36 36 37 39 44 50 52 55 59 64 68 65 53 49 50 47 45 41 35 34 34 34 36 38 41 45 47 48 52 55 55 58 63 66 66 63 61 62 63 65 69 70 71 72 74 75 76 77 78 79 78 77 76 76 77 80 82 82 81 79 78 78 77 76 78 81
51 53 55 56 53 50 47 45 43 40 40 39 39 40 42 46 51 55 60 66 60 52 52 51 49 47 42 37 35 35 36 38 39 42 46 48 51 55 56 57 60 63 67 67 64 62 63 65 68 69 69 72 74 76 78 78 77 78 79 78 78 78 78 81 84 83 81 80 81 80 79 79 80 80
50 50 55 61 62 60 59 58 56 53 52 51 49 47 45 43 45 50 57 66 63 53 51 52 51 51 50 44 39 37 37 37 39 41 44 46 49 53 54 56 59 61 64 70 70 64 61 63 66 69 70 72 77 78 77 77 77 78 78 80 82 80 79 81 83 83 82 80 80 79 78 79 80 78
57 57 60 65 66 66 65 63 62 61 59 57 54 51 50 47 45 46 50 57 60 54 51 52 53 53 53 52 46 40 38 38 39 40 40 42 47 52 53 52 55 58 62 71 74 67 62 61 62 67 72 74 76 78 79 78 76 76 78 80 82 80 80 81 82 83 83 82 82 81 80 79 78 78
62 63 63 64 64 62 61 62 65 66 63 61 60 57 54 51 48 44 42 45 51 54 51 50 55 55 54 54 52 45 40 40 40 39 38 38 43 50 52 50 51 56 65 74 77 71 65 62 61 65 71 73 73 75 78 78 76 77 79 79 80 82 83 83 83 83 81 80 81 82 82 82 81 81
65 66 67 66 64 62 64 67 68 68 66 64 65 65 62 60 58 54 47 43 46 52 51 49 51 55 55 55 54 52 46 41 40 40 36 36 40 46 49 48 51 59 68 74 77 74 70 66 61 60 66 69 72 74 75 75 76 78 79 81 82 84 84 83 84 84 82 80 80 80 80 81 82 82
68 69 70 70 70 70 72 73 71 70 70 67 65 64 64 66 67 64 59 54 50 48 46 45 47 51 54 55 56 57 52 44 41 41 38 35 38 43 46 47 53 60 63 65 71 73 70 66 61 59 62 67 71 75 74 73 75 78 80 82 83 84 85 86 85 85 84 82 80 80 79 78 79 80
72 73 73 74 75 75 75 76 75 73 72 72 70 68 67 67 67 65 64 62 62 60 52 46 46 48 52 54 56 59 57 50 44 42 40 38 37 40 43 46 53 58 55 55 62 68 69 68 65 62 63 66 70 72 72 72 75 79 81 83 84 86 87 87 87 86 85 83 81 81 81 81 80 81
77 77 78 78 78 79 80 80 80 80 78 78 77 77 76 75 73 72 68 65 72 81 77 65 56 51 49 51 54 57 58 56 50 44 43 41 38 40 42 44 50 53 52 52 56 61 66 68 69 68 67 68 69 69 70 73 77 80 82 85 87 88 87 86 87 87 85 84 85 85 85 85 84 82
82 81 82 82 82 82 83 84 84 84 84 83 82 82 81 81 80 78 75 74 75 79 80 79 73 63 54 51 53 54 54 57 57 50 45 43 40 40 41 42 45 48 50 52 53 58 64 67 68 70 69 66 64 66 70 73 77 82 86 87 84 83 85 86 87 88 87 88 89 88 88 89 88 86
85 86 86 86 86 86 86 86 87 86 86 84 82 81 81 82 81 77 75 75 73 67 65 70 74 72 66 60 58 57 55 61 65 57 49 46 42 41 41 40 41 43 47 50 52 56 62 66 66 65 64 63 62 65 68 71 76 82 85 82 77 79 85 87 88 88 88 90 92 91 90 91 90 88
91 91 90 90 90 90 90 90 91 90 90 89 85 82 81 80 79 78 77 74 72 69 65 63 67 72 71 66 62 61 60 62 63 57 52 49 44 42 42 40 40 41 45 49 52 53 56 60 61 60 62 63 64 66 67 68 72 77 79 79 79 82 87 89 90 90 89 90 92 91 91 91 90 89
97 95 95 94 92 92 94 95 96 96 95 94 92 88 86 83 80 78 77 76 74 72 70 67 66 68 69 68 66 64 60 59 60 60 57 53 49 46 44 43 40 40 43 48 49 50 51 55 56 56 59 60 60 63 65 67 70 73 77 80 81 82 84 86 87 88 87 85 85 87 89 89 88 88
100 99 97 97 96 95 96 96 97 99 99 99 98 96 94 92 88 85 82 79 75 73 72 71 68 65 64 67 71 69 65 63 66 69 66 58 54 52 51 48 43 41 43 45 44 43 46 52 54 53 54 54 54 55 56 58 63 67 72 75 77 79 81 81 80 79 80 81 84 87 90 89 88 88
99 98 96 97 97 97 98 97 95 95 95 97 99 99 99 97 94 91 88 85 82 78 74 72 71 67 61 63 70 71 69 70 72 74 72 66 61 57 54 51 46 43 43 44 42 40 41 45 48 49 52 52 51 51 51 53 58 62 66 71 76 80 80 79 80 81 83 87 90 92 92 91 90 90
100 99 96 96 96 97 98 98 96 93 93 95 98 98 98 99 98 95 92 90 88 85 81 77 75 70 62 62 69 70 70 75 77 75 73 71 69 64 57 53 49 45 44 45 45 44 43 44 44 46 49 50 50 51 53 57 60 62 66 70 75 78 80 82 86 89 91 93 93 94 94 93 93 93
100 100 99 98 97 98 98 96 92 90 90 95 100 100 97 96 97 96 94 93 91 87 84 81 80 78 69 65 69 71 75 81 82 78 73 74 75 70 61 56 53 50 47 47 50 52 50 46 44 45 47 48 50 53 56 59 62 64 67 72 75 80 84 87 91 93 94 94 94 94 94 94 93 93
100 100 100 101 100 99 100 98 93 90 90 93 98 101 99 94 92 92 91 91 90 87 81 78 80 83 80 75 71 69 75 85 88 83 75 72 74 73 67 62 60 56 50 48 54 58 53 46 45 47 46 45 47 50 53 57 61 66 72 76 80 83 86 89 92 93 93 93 93 93 93 93 93 93
99 100 100 100 101 100 99 98 96 95 96 98 99 100 99 97 96 93 90 89 88 81 73 74 78 79 79 82 81 74 74 82 88 87 81 75 76 78 74 70 68 65 58 53 55 59 55 49 48 48 46 45 45 46 48 53 60 69 75 80 83 85 87 90 92 92 91 91 92 91 91 92 92 92
96 98 98 98 99 98 98 99 98 96 95 98 101 102 100 100 99 94 89 89 88 80 72 74 78 77 73 75 81 85 85 83 82 86 87 81 78 80 78 75 72 67 63 60 59 60 58 54 52 52 50 48 49 50 51 53 58 66 73 79 83 85 88 89 89 89 89 88 89 90 91 92 91 90
96 96 96 95 94 95 98 101 95 84 81 89 95 96 99 102 99 93 89 85 83 84 81 76 76 79 79 76 78 85 91 89 84 86 87 80 77 80 79 74 69 62 59 60 62 65 64 58 56 56 55 53 53 56 60 59 58 64 73 80 82 84 86 86 86 87 86 85 88 91 92 92 92 93
97 97 97 96 93 88 85 86 82 73 74 86 84 77 87 102 99 92 89 84 80 83 83 80 79 81 82 84 85 85 89 89 85 86 87 81 79 81 77 69 64 61 58 57 63 71 70 64 60 58 59 62 60 59 63 64 62 67 76 82 82 81 83 86 88 89 88 89 91 92 92 91 92 95
97 94 92 90 86 76 66 65 73 73 73 81 78 70 83 101 98 87 84 82 79 79 79 80 83 82 80 84 87 87 87 86 83 88 90 83 80 79 72 64 61 59 55 54 61 69 68 65 63 60 62 67 65 63 64 63 65 75 84 88 88 88 88 92 93 91 92 94 93 92 92 91 89 93
94 86 83 83 81 80 71 64 71 76 72 74 77 77 82 89 87 82 80 78 77 79 79 79 81 83 84 83 81 82 84 85 89 95 92 83 79 76 68 61 58 55 52 54 59 64 65 64 62 61 66 72 71 72 73 72 76 85 89 91 95 95 95 97 97 94 94 94 90 89 91 90 89 92
90 85 85 85 84 86 82 70 67 73 73 73 78 80 79 80 82 83 82 80 78 79 81 81 81 83 85 83 82 84 85 88 95 99 91 81 77 74 65 58 57 56 55 58 62 63 63 64 63 65 73 75 70 71 76 79 83 87 87 89 95 96 97 98 97 96 96 93 88 87 88 88 88 90
89 86 88 92 92 91 88 78 71 71 75 78 80 80 78 80 84 84 83 84 83 80 80 82 83 83 84 87 92 94 93 94 97 99 93 83 77 74 67 60 58 56 57 67 75 69 63 66 70 72 76 74 67 67 72 76 81 86 87 90 95 98 100 100 98 98 97 93 90 90 92 93 93 92
90 90 93 96 95 86 78 73 72 74 78 79 77 78 79 79 80 81 83 86 85 82 82 81 79 80 84 89 92 92 92 91 91 94 96 90 81 77 70 64 62 62 67 83 90 77 67 75 83 83 83 82 77 75 75 75 80 84 86 89 94 98 100 99 100 100 97 95 97 98 97 98 99 98
92 96 100 100 97 88 80 78 79 80 81 78 74 77 82 83 83 84 86 87 86 84 83 79 74 78 86 88 84 82 85 88 90 95 100 97 89 83 78 75 72 70 79 96 98 84 78 87 93 92 92 92 88 84 81 81 83 85 88 93 95 96 97 99 100 100 99 99 100 100 100 100 100 100
97 101 102 102 102 100 97 95 92 88 85 83 80 82 86 89 91 90 87 87 87 84 81 77 73 77 85 88 84 81 84 92 97 99 101 100 98 94 92 91 86 78 84 98 102 93 89 94 98 98 97 97 96 92 87 88 88 87 91 97 97 94 96 100 99 96 98 101 99 97 99 100 100 100
102 103 101 99 100 100 96 92 88 86 86 86 87 89 91 93 96 93 89 87 85 81 78 77 75 75 81 89 92 88 89 97 101 99 99 100 101 100 98 96 92 86 86 93 100 100 96 96 99 101 99 99 99 95 93 94 94 90 92 97 98 96 95 96 95 93 93 96 94 91 94 99 100 100
102 100 96 94 94 95 93 89 86 86 85 84 87 93 95 95 97 96 93 89 85 81 79 78 77 77 80 87 92 91 93 99 101 99 99 99 100 101 97 90 87 87 88 91 95 98 99 99 100 100 99 99 98 97 96 96 94 92 93 95 97 96 93 92 96 95 92 90 87 86 92 99 100 100
99 94 91 90 90 92 92 90 90 92 90 87 88 93 96 95 95 95 92 88 85 84 83 81 81 81 81 80 82 84 88 94 99 100 98 97 98 99 93 83 79 82 85 88 91 96 99 101 100 99 100 98 97 98 99 98 93 91 94 96 97 95 92 93 95 93 90 89 84 82 92 101 100 99
92 88 88 88 90 91 90 90 91 93 94 93 92 91 88 87 91 91 87 85 86 85 85 83 81 81 79 76 77 79 79 83 92 97 95 92 95 94 86 77 75 78 82 86 91 98 100 100 100 100 100 98 95 93 95 96 94 92 94 96 97 93 92 97 97 88 86 91 87 82 90 100 100 99
88 87 87 87 88 90 90 91 92 93 93 94 95 92 86 83 86 88 85 84 86 84 82 81 79 78 77 74 74 76 75 77 85 92 92 92 92 87 80 74 73 77 81 83 90 98 100 99 100 100 99 99 96 90 88 87 89 95 97 92 90 91 93 98 98 91 88 93 92 86 88 96 100 100
87 87 87 86 88 90 90 91 93 94 94 94 95 95 92 88 87 85 85 86 86 83 80 79 77 75 75 73 73 76 77 79 85 88 91 93 89 81 76 75 74 76 76 76 84 96 100 100 101 95 91 92 90 87 88 84 81 91 99 90 83 90 95 94 93 89 86 89 91 88 88 95 100 98
88 88 88 88 89 90 91 91 93 94 95 96 95 96 98 98 95 92 91 91 90 86 84 82 79 76 76 75 76 78 80 85 89 87 86 88 85 78 76 76 75 75 73 72 83 97 99 99 98 88 82 84 84 84 93 95 87 88 97 96 91 92 95 93 88 85 84 84 85 87 90 96 101 96
89 88 88 90 90 91 92 93 94 95 95 96 97 97 99 101 100 98 97 95 92 90 88 85 82 79 78 76 75 77 82 88 92 88 82 80 79 77 75 74 74 75 73 75 87 98 97 93 90 82 77 79 79 79 91 102 97 87 89 97 97 94 95 94 86 82 85 86 83 84 88 93 97 96
91 89 90 91 92 93 94 95 96 97 96 96 98 99 99 100 100 100 99 96 92 90 89 87 83 81 80 77 75 78 84 87 88 87 82 76 74 73 73 73 72 72 75 80 89 96 93 85 82 79 75 73 75 76 81 91 94 88 85 91 94 92 95 95 85 76 78 83 85 85 83 84 89 93
92 92 92 92 93 95 96 97 99 99 98 98 99 100 100 101 101 101 101 99 96 92 88 87 86 84 82 80 78 81 85 84 82 82 80 77 75 73 73 72 71 71 77 85 90 92 88 80 76 77 76 75 80 83 82 88 96 96 90 89 89 90 92 92 87 83 84 88 91 91 86 85 92 94
94 93 93 94 95 95 96 98 99 100 99 99 100 100 100 100 100 101 101 101 100 95 89 88 89 88 86 84 82 82 83 81 79 79 78 78 78 76 74 75 74 73 77 84 87 87 82 76 77 79 79 80 86 88 87 91 99 100 95 92 92 91 85 79 79 88 96 97 95 93 86 81 82 84
97 96 96 96 97 98 98 99 100 100 100 100 100 100 100 100 100 101 100 98 97 96 93 92 92 91 89 88 86 83 81 80 79 79 80 79 79 78 79 77 74 74 80 84 84 82 80 81 84 83 82 86 90 86 81 85 92 97 98 99 97 91 83 78 81 91 99 99 96 96 95 88 82 83
99 98 99 99 99 100 99 100 100 100 100 100 100 100 100 100 100 101 100 98 97 97 97 95 92 90 89 88 86 83 81 81 80 80 81 80 78 79 81 77 72 76 83 84 82 83 87 90 90 86 88 93 92 83 79 84 90 95 99 101 100 91 84 87 96 99 97 95 95 95 97 96 93 90
100 100 100 100 100 100 100 100 100 100 100 100 100 100 100 100 100 100 100 100 98 98 98 95 91 89 88 87 85 84 83 83 83 81 79 79 77 77 78 77 76 79 83 85 88 91 94 96 94 92 94 93 86 81 84 91 94 96 97 100 102 95 83 85 97 101 97 98 99 94 89 89 88 86
100 100 100 100 100 100 100 100 100 100 100 100 100 100 100 100 100 100 100 100 99 98 98 97 94 90 89 88 88 88 88 88 87 84 83 82 82 81 81 82 83 85 87 92 97 98 97 97 97 94 90 83 77 79 87 93 94 97 99 100 98 90 78 79 92 99 99 100 100 96 92 89 86 83
Wind_Speed
22 22 22 23 24 25 25 26 26 27 28 28 27 28 26 22 14 10 12 11 13 21 25 25 26 28 30 29 28 29 29 30 30 29 29 29 29 29 28 27 29 30 32 34 35 36 36 37 36 36 35 34 32 31 30 29 29 28 29 28 28 28 27 27 28 28 28 26 25 25 26 26 25 25
21 22 23 23 24 25 25 26 27 27 28 28 29 29 29 28 21 14 13 13 17 22 24 25 25 25 28 29 29 30 29 29 30 29 29 29 29 29 28 27 28 29 31 33 35 35 36 36 37 37 35 34 33 31 30 30 30 29 29 28 28 28 28 28 28 28 28 28 28 28 28 28 27 27
22 24 25 25 24 24 24 24 24 25 25 25 27 27 29 30 29 25 19 13 19 27 26 25 27 26 28 30 30 29 28 29 29 28 28 29 28 29 28 27 28 28 29 31 33 34 35 36 37 36 35 34 32 31 31 31 30 29 28 27 27 28 28 28 28 28 28 28 28 29 29 28 28 28
25 26 27 26 25 24 23 23 22 22 22 23 24 25 26 28 28 29 24 15 19 30 31 29 30 30 29 30 31 30 28 27 28 27 27 28 27 28 27 27 27 28 29 30 31 32 34 35 35 35 35 34 32 31 31 30 29 28 27 28 28 29 29 29 29 29 29 29 29 29 29 29 29 29
25 26 27 26 25 24 24 25 25 24 24 24 26 27 28 29 28 28 27 19 17 26 32 31 32 32 31 31 32 33 31 28 28 29 28 28 27 27 26 26 27 28 29 30 30 30 31 33 34 34 34 32 31 30 30 30 29 29 29 29 29 29 29 29 29 29 29 29 29 29 29 30 29 29
26 25 26 27 26 26 26 27 26 25 25 25 26 26 27 28 30 29 29 26 20 21 29 32 31 32 32 31 31 32 33 32 31 31 30 29 28 27 26 25 25 26 29 30 30 29 30 31 33 34 33 32 31 31 30 30 29 29 29 29 29 29 30 30 29 29 29 29 29 29 29 30 30 30
26 25 26 27 26 25 25 25 24 24 24 25 25 26 27 28 29 29 30 30 25 23 27 31 32 32 31 31 31 31 32 34 33 33 33 31 30 29 27 26 25 25 26 29 29 29 30 31 32 33 33 33 32 32 31 30 29 29 30 30 30 30 30 30 29 29 30 30 30 30 30 30 30 30
26 26 26 26 25 24 24 25 24 24 24 25 25 26 27 27 28 28 27 29 28 27 27 30 32 33 31 30 30 29 30 32 33 34 35 32 31 30 28 27 26 24 24 26 28 28 29 30 32 33 33 33 32 32 31 30 30 30 30 30 30 30 30 30 30 30 30 30 30 30 30 31 31 31
27 26 26 26 25 25 25 26 25 25 24 25 25 26 26 26 26 27 28 29 29 28 28 30 32 33 32 32 31 29 28 29 30 33 34 33 31 30 29 28 27 24 22 23 25 27 28 30 31 32 33 33 33 32 32 31 31 31 30 30 30 30 30 30 30 30 30 30 30 30 30 30 31 32
27 27 27 28 27 27 27 27 27 27 26 26 26 26 27 27 27 27 29 31 30 29 27 28 30 32 33 33 32 31 30 28 28 30 31 32 32 30 27 28 27 24 22 22 23 25 27 29 31 31 33 33 33 33 32 31 31 31 30 30 30 30 30 31 31 31 31 31 31 31 31 30 31 31
27 28 29 29 29 29 30 30 30 29 29 28 28 28 28 27 27 28 28 28 28 28 27 27 27 28 30 32 32 33 32 29 29 31 29 29 30 29 27 28 28 24 22 21 21 23 25 27 29 30 32 33 34 34 33 32 32 32 31 31 31 31 32 32 32 32 32 32 31 31 31 31 31 31
29 30 31 31 32 33 33 33 33 32 31 29 29 29 28 28 28 27 27 26 26 26 26 26 27 28 28 29 31 32 30 27 26 29 28 26 27 27 26 27 27 24 22 21 20 20 21 23 27 29 31 33 34 35 34 33 33 33 33 33 34 33 33 33 33 33 33 32 31 31 31 31 31 32
31 32 33 35 36 36 37 38 37 37 35 33 31 30 29 28 28 28 27 26 25 24 24 24 25 25 25 27 28 27 26 25 25 27 28 26 26 25 24 26 27 24 23 22 20 20 20 21 24 27 29 30 32 34 34 35 35 35 35 35 35 34 34 33 33 33 33 33 32 31 31 31 32 32
32 34 36 37 39 40 40 41 42 43 43 42 40 39 35 32 30 30 29 28 27 25 23 23 23 21 22 26 26 25 27 27 26 27 27 25 25 24 21 22 26 25 22 20 20 20 19 19 21 23 26 27 28 30 31 32 33 34 35 35 35 35 35 34 34 34 33 33 33 32 32 32 32 32
34 35 36 37 38 39 40 41 43 45 46 47 48 48 46 43 39 36 32 30 30 28 25 25 24 22 23 27 28 27 27 28 27 28 28 25 22 20 16 13 17 22 22 20 20 20 21 21 21 22 23 23 24 25 26 26 28 30 31 32 32 33 33 34 34 34 34 34 33 32 31 31 31 31
33 34 35 36 36 36 37 39 40 42 45 47 49 50 50 49 49 47 42 37 33 30 28 27 27 26 27 29 30 29 27 27 28 29 30 26 22 20 17 13 13 17 20 21 19 19 21 22 22 22 22 21 21 23 24 24 26 28 29 29 30 30 30 31 31 32 32 32 31 30 30 30 30 30
33 34 35 35 35 35 36 39 40 42 43 44 44 46 48 48 48 50 51 48 42 36 33 31 30 31 31 30 31 31 28 27 27 27 27 26 24 21 19 18 16 15 17 20 18 16 18 20 20 21 21 21 22 24 24 25 27 28 28 28 29 29 28 28 28 28 28 28 28 28 28 28 29 29
34 34 34 34 35 36 38 39 41 43 43 42 40 39 40 42 43 44 46 48 46 42 40 38 36 37 36 35 35 33 30 29 28 27 26 25 24 23 23 20 18 17 17 18 15 12 14 16 17 18 19 19 23 24 24 24 26 27 28 28 28 27 27 27 27 27 27 27 27 27 27 27 28 28
33 34 34 35 37 39 40 40 42 43 44 43 41 40 39 39 39 39 40 42 43 43 42 43 43 42 41 40 40 39 37 35 31 28 28 25 24 26 25 20 16 17 19 18 14 9 12 16 16 17 18 18 21 24 23 23 25 25 26 26 26 26 26 26 26 26 26 26 26 26 26 26 27 27
33 33 34 36 38 40 41 42 44 46 45 42 39 39 40 37 34 35 37 38 41 44 42 42 44 44 44 43 42 43 43 38 33 29 28 27 24 21 17 13 12 15 18 19 17 12 12 16 16 15 16 17 19 21 22 21 22 23 24 24 24 25 25 25 25 25 25 25 25 25 25 25 25 26
32 33 35 37 40 42 43 43 44 47 48 45 38 34 33 31 30 32 34 35 39 43 43 42 43 45 47 47 46 47 46 44 41 33 25 24 23 16 10 8 10 15 18 21 21 16 13 15 15 14 15 17 18 18 18 18 18 19 22 23 23 23 23 23 23 24 24 24 24 24 24 24 24 25
31 33 37 40 43 45 45 47 48 50 50 47 38 30 27 26 28 31 32 33 36 39 40 41 43 45 47 48 48 49 48 48 48 39 28 25 23 17 12 10 11 14 17 21 22 17 14 16 16 14 14 16 18 18 17 17 17 17 18 20 21 21 22 22 22 23 24 24 24 23 23 23 23 23
32 35 37 40 43 44 44 45 48 49 47 44 39 32 25 22 26 30 31 32 34 34 35 36 38 40 43 44 45 48 48 49 50 44 35 30 25 18 16 15 12 9 11 18 22 18 14 17 17 15 11 9 12 18 19 18 17 16 15 16 17 19 20 21 21 22 23 23 23 22 21 21 21 21
33 34 35 35 38 40 41 41 42 42 40 38 37 32 25 21 26 32 32 32 32 31 33 34 33 34 36 38 40 42 44 46 47 44 37 32 27 22 19 17 14 9 8 17 24 21 15 15 16 16 14 8 6 11 17 19 17 15 14 13 14 16 17 18 19 20 20 21 20 20 20 19 20 21
31 31 32 32 35 39 42 42 40 40 38 35 32 29 27 29 33 34 31 31 32 32 32 32 31 31 32 34 36 38 41 43 41 36 33 30 27 24 21 17 15 13 11 15 23 23 18 15 15 16 16 13 8 7 9 14 16 15 14 13 13 13 13 14 15 15 16 16 17 18 19 19 19 20
29 30 32 33 36 41 44 45 43 40 38 36 32 29 30 34 37 36 32 28 27 28 29 29 29 30 31 31 32 34 38 40 35 30 29 28 26 25 23 19 16 14 13 14 20 23 19 15 16 15 12 11 10 9 7 9 13 15 15 13 12 11 10 10 11 12 12 12 13 13 14 15 16 17
31 31 32 35 39 43 46 47 44 39 36 33 30 28 28 31 34 35 31 26 25 26 27 26 26 27 26 24 23 23 25 26 27 27 27 29 28 25 22 20 16 14 13 14 18 22 19 14 15 15 12 9 9 8 8 7 10 14 14 13 12 11 9 8 8 9 9 9 9 9 10 11 12 14
31 32 35 40 45 47 46 43 38 32 28 25 22 23 24 26 29 29 26 25 25 25 24 23 21 19 20 20 19 18 18 19 23 26 26 28 28 25 22 20 17 15 13 13 17 21 19 14 12 13 11 8 5 5 6 6 7 10 10 9 8 8 7 8 7 7 7 7 6 6 6 6 7 8
32 36 41 43 44 44 41 37 30 25 22 20 18 19 22 23 24 25 25 26 25 23 23 21 17 13 14 20 22 21 19 20 23 24 22 24 26 24 20 18 17 16 14 12 15 21 19 12 9 10 9 6 4 4 4 4 3 5 4 5 5 6 6 6 6 6 5 4 3 3 3 3 3 3
34 38 39 38 38 38 36 31 26 23 21 20 20 23 25 26 26 24 24 23 23 22 21 19 15 12 12 17 22 22 21 22 24 24 20 20 23 21 16 14 16 20 17 11 12 19 19 11 7 8 7 6 6 6 5 4 3 3 3 3 4 5 5 4 4 4 3 2 2 2 1 1 0 0
34 35 35 34 34 31 27 23 22 21 21 21 23 24 24 24 27 27 26 25 23 21 20 17 15 14 14 16 20 22 22 21 23 24 21 19 19 19 15 13 14 18 19 14 11 14 16 13 8 7 7 5 5 6 6 5 4 3 3 4 3 3 3 3 3 3 2 1 1 1 1 1 2 3
31 30 30 30 28 25 19 15 16 17 17 19 19 14 7 6 11 18 21 22 21 18 17 16 14 13 14 14 16 18 19 18 19 22 21 19 18 17 16 13 12 13 16 16 12 10 11 11 9 8 8 6 5 5 5 6 6 5 4 4 3 2 2 3 2 1 2 2 2 2 2 3 5 6
26 25 26 25 23 23 21 20 20 20 20 20 16 4 5 6 7 11 13 13 14 14 14 14 12 11 11 11 11 12 14 15 18 20 20 18 18 18 16 13 13 13 15 15 13 11 10 10 9 9 8 7 7 7 5 4 5 6 4 2 2 1 3 3 1 1 3 2 2 3 5 6 7 8
20 20 22 21 21 22 21 20 21 21 21 23 20 9 6 6 5 8 11 12 13 13 13 13 12 11 10 10 9 10 12 13 16 20 20 19 18 18 16 13 13 14 15 14 13 13 12 11 10 9 8 8 8 10 9 7 5 4 4 3 2 1 3 3 0 2 3 1 1 4 7 7 8 8
17 18 20 19 20 21 21 19 20 21 21 21 22 18 8 4 4 5 7 10 11 12 11 11 11 10 10 10 10 12 13 14 15 18 20 19 19 18 16 14 13 14 15 14 13 14 14 12 10 7 6 5 5 7 10 12 9 5 4 4 3 2 3 2 1 2 3 1 3 4 7 7 8 8
16 18 19 19 20 21 21 20 21 22 22 22 22 22 17 10 5 3 5 6 7 9 9 9 9 9 10 11 12 13 14 14 15 17 18 18 18 18 16 14 14 14 14 14 14 15 15 13 11 8 4 3 3 3 5 11 14 9 4 3 3 2 2 3 3 3 3 4 5 5 6 6 6 7
18 18 18 18 20 20 20 21 22 22 23 23 22 21 20 18 15 6 3 6 5 6 8 9 9 9 10 12 12 13 14 13 14 16 17 17 17 17 15 14 13 13 13 12 14 17 16 13 12 10 5 3 4 3 2 7 12 12 7 3 2 2 1 3 5 5 4 4 4 4 4 4 4 4
19 19 18 18 19 19 19 21 22 22 22 23 23 23 21 22 24 18 4 5 5 5 7 8 9 10 10 12 12 12 13 13 13 14 16 15 14 15 15 14 13 13 12 12 13 15 15 13 13 11 8 4 3 3 4 5 8 13 12 7 4 3 1 1 4 7 6 4 2 2 3 3 3 1
20 20 20 20 20 21 21 21 22 22 22 22 22 24 23 24 26 25 16 7 4 7 8 8 9 11 11 12 13 11 12 13 13 13 14 14 13 12 13 13 12 12 11 11 11 12 13 13 13 13 12 7 2 2 7 9 7 11 14 10 6 4 3 4 3 5 5 4 2 2 3 4 3 1
21 21 21 22 22 23 23 23 23 22 23 23 23 23 24 24 24 23 22 20 12 7 9 8 9 11 11 11 12 11 10 12 14 14 14 14 13 12 12 12 12 12 10 10 10 11 12 13 14 14 14 8 2 5 14 15 11 11 13 10 6 4 4 6 6 5 5 3 3 3 6 7 4 1
22 22 22 22 23 23 23 24 24 23 23 24 24 24 23 24 24 22 23 25 21 9 9 9 8 10 11 11 12 13 12 12 14 15 15 14 14 14 12 11 11 11 10 9 10 11 13 14 15 15 13 7 2 7 12 10 7 8 10 8 6 5 6 5 5 6 6 5 6 5 1 5 4 4
22 22 22 22 23 23 23 23 24 24 24 24 24 25 24 23 24 25 25 27 26 16 5 9 9 9 11 12 12 12 13 14 14 15 15 14 14 14 13 11 10 10 10 10 11 12 13 14 16 15 12 8 6 5 4 4 5 8 9 8 7 7 7 6 4 5 6 5 5 5 3 1 3 4
22 22 22 23 22 22 23 24 24 24 24 24 23 24 24 23 24 26 27 27 28 25 13 5 10 9 9 11 12 11 13 15 16 15 15 15 13 12 12 12 11 11 11 12 13 14 15 16 16 15 11 9 8 6 4 7 8 8 8 8 9 9 7 6 6 7 9 9 7 6 4 3 2 3
22 22 23 23 23 23 23 24 24 24 24 24 23 23 23 23 23 25 26 25 26 29 23 7 7 9 8 10 12 11 11 14 17 17 17 16 15 14 14 14 15 13 12 14 14 14 15 16 15 14 12 9 8 6 8 10 9 8 9 10 11 11 9 6 6 9 12 13 11 9 8 8 7 7
22 23 23 23 23 24 24 24 25 25 25 24 23 23 23 23 24 25 26 26 27 29 28 18 4 5 8 8 9 9 11 13 15 16 16 16 16 15 13 13 13 12 12 15 15 13 14 15 14 13 12 10 8 7 11 12 10 8 9 11 12 12 9 6 7 11 15 15 11 9 9 10 10 11
Wind_Direction
283 281 278 276 276 277 276 274 271 269 268 267 267 266 266 267 270 272 269 267 265 264 264 264 263 259 257 256 253 253 251 251 252 249 244 241 239 242 243 238 237 238 238 239 240 240 241 241 241 240 238 237 236 237 240 242 243 244 246 248 251 253 255 256 258 260 263 265 265 263 261 262 266 266
285 284 282 279 278 277 276 274 272 271 270 269 266 265 264 264 266 270 272 268 265 265 264 262 264 265 262 259 256 253 251 252 253 248 245 242 238 238 239 235 234 236 238 239 240 240 240 241 241 240 239 237 235 235 238 240 242 243 245 247 250 252 255 256 256 257 258 259 259 258 258 259 260 261
283 283 282 280 278 277 276 275 274 273 273 272 271 268 265 262 262 264 268 270 265 265 266 265 265 266 266 266 264 258 250 250 253 250 244 243 241 238 237 233 230 233 236 237 238 239 239 240 240 239 239 239 237 237 239 240 242 244 246 249 252 254 255 256 257 256 256 256 256 256 257 257 257 257
282 281 280 278 278 278 278 278 279 278 279 282 284 284 280 273 267 264 264 267 268 265 265 267 267 266 266 268 268 266 258 249 248 249 247 246 245 240 237 233 229 229 233 235 236 238 238 239 239 239 240 239 238 239 240 242 243 246 249 252 254 256 256 256 257 257 256 255 255 255 256 257 257 257
280 279 278 278 277 277 278 278 279 279 280 282 283 282 281 279 275 270 268 269 271 269 266 265 265 263 263 264 265 266 263 254 246 246 248 248 247 242 238 234 229 227 229 232 233 235 237 237 238 239 240 241 241 241 240 240 243 247 250 253 255 256 256 256 257 257 257 256 255 255 255 255 255 255
278 277 277 277 277 277 278 277 277 277 277 277 275 272 271 271 269 268 268 268 269 270 266 264 264 262 260 261 261 261 261 258 252 249 248 247 245 243 239 236 231 226 226 228 230 232 234 236 236 237 238 240 241 242 240 240 245 249 252 253 254 255 256 256 256 256 255 255 255 255 255 255 255 255
276 275 275 275 276 277 277 275 275 275 274 273 272 271 270 269 267 265 265 266 267 270 268 264 263 262 260 259 258 259 260 259 256 253 251 247 243 242 241 238 232 225 222 225 228 230 232 234 235 236 237 237 238 240 241 244 248 252 253 254 255 255 255 254 254 254 254 253 253 253 253 254 255 255
275 274 274 274 275 275 274 273 273 273 272 271 271 271 269 269 270 269 266 265 265 267 267 264 262 262 262 260 257 259 260 258 255 253 251 247 242 240 240 237 231 224 221 223 226 228 232 234 235 235 236 236 236 237 240 245 249 252 253 254 254 254 254 254 253 253 252 252 252 251 251 252 253 254
274 272 272 271 272 271 271 270 270 269 269 268 268 268 268 267 269 272 272 272 272 270 267 263 260 259 261 261 257 255 258 260 258 253 249 246 242 239 238 236 230 223 220 223 225 227 230 233 234 234 234 234 235 237 240 245 249 251 252 253 254 254 254 253 252 252 251 251 250 250 250 250 251 252
270 269 268 268 268 267 266 265 265 264 265 266 265 264 264 264 265 268 269 272 276 279 277 273 265 258 254 255 255 252 252 257 260 255 248 244 241 236 234 234 230 223 220 221 223 226 228 230 232 233 233 233 235 237 241 246 249 250 251 253 253 254 253 252 252 251 250 250 250 250 250 249 249 250
268 267 266 265 264 262 260 259 259 260 261 262 262 260 260 261 262 263 264 266 270 275 279 281 277 267 255 250 251 250 247 249 254 253 247 243 239 232 229 232 231 223 218 218 221 225 227 228 231 233 234 236 238 239 242 246 248 249 250 251 252 253 253 252 251 251 250 250 250 249 249 249 249 249
268 267 265 264 262 260 258 256 256 256 256 257 258 257 256 256 257 259 261 262 264 267 270 272 274 274 266 254 249 247 243 240 245 249 246 242 239 232 227 230 230 222 215 214 216 222 225 227 231 234 236 238 239 240 243 246 247 248 249 251 252 252 252 252 251 250 250 249 249 249 248 249 249 249
267 266 265 263 261 259 258 256 255 254 253 252 253 254 253 252 253 255 256 257 259 262 264 264 265 270 271 262 252 244 239 236 239 245 246 242 239 234 229 229 228 221 212 208 210 216 222 227 231 233 235 236 237 238 240 242 244 245 247 250 251 251 250 250 250 250 249 248 248 248 248 248 248 249
267 267 264 262 262 261 260 258 257 256 254 252 251 252 251 249 248 249 252 253 253 255 258 260 259 259 262 264 260 249 241 239 239 241 242 241 238 237 235 232 227 219 209 204 208 214 220 228 232 232 233 235 237 237 238 239 241 244 246 248 249 249 249 249 249 249 249 248 248 248 248 248 248 248
266 266 265 263 262 262 260 259 257 255 254 252 252 252 251 249 247 245 245 247 249 250 252 254 255 253 253 259 264 260 247 238 236 239 239 238 236 234 235 235 226 215 206 204 213 220 221 225 230 233 234 233 234 235 236 236 238 241 244 246 248 248 247 248 249 248 248 248 248 248 248 247 247 248
266 267 265 263 262 261 258 257 256 256 255 253 252 251 251 250 249 247 244 241 240 241 246 249 251 251 250 252 257 261 255 242 235 237 238 234 232 231 230 230 225 215 206 207 220 228 223 223 229 234 236 236 235 237 238 237 238 241 243 245 245 246 247 247 247 247 247 247 247 246 246 246 246 247
266 265 264 263 262 260 257 256 256 257 257 254 251 251 252 252 251 251 250 247 243 239 240 244 246 247 249 249 249 253 259 252 238 232 233 231 230 233 233 229 224 215 205 206 217 226 221 222 231 236 236 239 241 241 240 240 242 243 243 244 244 245 246 246 245 245 245 245 245 244 245 245 245 246
266 264 263 263 262 261 258 257 259 260 258 254 249 247 249 250 250 250 251 252 252 249 247 247 246 244 244 246 248 250 257 261 248 231 228 228 228 235 241 238 226 215 207 203 208 219 218 218 229 235 235 240 244 245 244 242 244 245 243 242 243 243 244 244 244 244 244 244 244 244 244 245 245 246
267 265 263 262 261 260 257 256 260 262 259 255 247 242 244 247 247 246 246 247 249 250 250 251 249 247 243 242 245 247 251 260 257 238 228 228 232 237 240 237 225 216 211 204 201 212 216 215 224 234 236 240 246 248 248 245 243 243 242 241 240 241 242 242 242 243 242 242 243 243 244 246 246 247
271 268 266 263 262 262 260 260 264 264 261 255 243 235 238 241 240 242 244 244 244 244 244 246 247 247 245 242 243 242 243 250 256 249 236 231 232 233 229 219 211 211 211 207 206 215 220 218 225 236 239 242 247 249 250 247 242 240 240 239 239 238 239 240 240 241 241 242 242 244 246 247 248 249
276 273 272 270 270 270 268 266 267 268 266 260 247 232 229 230 232 237 242 244 247 249 247 245 244 242 242 241 241 241 240 241 246 246 235 221 219 220 216 210 211 212 213 214 215 220 225 220 224 237 243 245 247 248 247 246 244 242 239 237 236 236 236 238 240 241 241 242 243 245 246 247 248 249
282 279 278 277 277 276 273 270 269 270 268 264 254 236 224 222 225 232 237 240 246 251 253 253 250 246 242 239 238 239 239 239 240 238 227 217 216 215 215 220 219 216 218 216 212 214 224 224 224 234 241 244 246 244 245 246 245 241 236 233 233 235 237 239 242 243 243 243 245 245 246 247 247 247
288 284 281 282 282 281 279 277 275 274 271 267 258 244 229 224 226 231 236 239 241 245 250 253 254 252 247 243 241 239 237 237 239 237 228 219 215 211 215 219 216 215 219 210 202 203 216 221 220 223 228 240 243 236 234 238 240 232 225 229 233 235 239 242 244 245 244 243 243 243 245 246 246 249
293 289 287 287 287 288 292 292 287 281 278 273 263 246 226 221 232 237 239 241 241 243 246 248 249 249 246 243 241 237 233 235 240 238 227 217 212 211 214 213 210 214 216 203 200 202 211 215 213 215 218 227 251 238 224 221 224 220 213 223 234 235 237 242 244 244 243 241 240 242 245 245 244 247
294 293 292 291 291 292 296 296 292 287 283 278 270 252 231 231 240 241 238 239 240 241 244 246 246 246 244 239 234 231 230 234 237 230 216 207 206 210 211 208 208 215 218 207 203 203 207 210 208 209 213 221 246 264 226 206 208 212 215 225 236 236 233 235 239 241 240 239 239 241 243 243 242 243
297 296 294 293 292 292 293 294 294 290 284 280 276 263 245 239 240 238 235 236 239 240 242 243 242 243 241 230 220 218 224 227 223 211 201 200 203 208 212 210 208 211 218 216 209 205 205 208 206 202 203 211 227 244 235 205 203 211 220 230 236 235 230 228 234 238 236 236 239 240 241 242 242 241
301 298 296 293 291 292 293 296 295 292 286 282 276 266 253 243 239 238 236 236 238 242 244 243 241 239 229 211 195 192 200 204 199 195 197 201 203 206 210 210 211 216 221 218 209 204 205 206 201 198 202 209 214 222 229 219 203 200 209 224 231 228 222 221 232 238 233 233 239 240 241 244 243 240
302 300 298 296 294 295 297 299 298 295 293 287 274 264 257 249 243 241 237 234 236 242 247 249 245 232 210 190 179 175 174 177 186 194 198 201 202 205 209 210 213 219 224 222 210 202 201 202 194 189 198 210 213 222 235 230 202 186 193 218 231 223 215 217 223 227 228 230 229 227 233 240 242 241
305 303 301 300 300 301 302 302 301 298 295 289 274 263 257 250 244 240 235 232 233 238 245 248 244 227 199 185 182 178 172 175 184 189 189 193 199 203 206 208 208 211 215 217 206 197 194 191 181 178 187 203 222 252 266 253 209 185 192 224 229 216 217 224 215 209 220 223 199 189 212 231 240 243
311 309 307 307 306 303 298 294 291 289 288 284 275 267 258 249 241 234 230 229 228 230 235 236 231 222 201 184 179 173 168 172 181 181 178 182 190 192 189 188 197 207 210 202 187 189 192 188 171 169 178 191 214 238 262 279 263 228 218 236 237 217 213 212 194 192 214 224 173 162 221 258 310 70
319 318 317 315 315 312 300 286 279 279 278 275 273 271 264 250 237 228 224 224 224 224 222 217 217 216 202 184 176 173 169 170 177 180 176 175 181 183 177 176 191 205 210 205 182 176 186 191 187 184 187 196 212 226 241 257 268 271 248 236 245 235 198 152 144 177 198 183 152 137 89 35 33 40
324 322 322 321 326 335 337 327 315 305 296 289 283 277 274 247 214 207 210 212 210 207 204 200 201 199 187 176 172 173 173 168 167 171 173 171 175 177 177 183 190 190 196 203 197 177 177 185 189 195 202 208 216 230 244 240 238 253 260 246 244 238 165 112 97 159 149 126 126 119 86 59 47 47
326 326 328 330 335 345 353 354 347 342 336 329 322 324 97 80 103 138 155 165 168 169 169 169 170 166 162 162 164 170 176 172 166 168 170 170 172 174 179 189 192 181 180 192 197 189 183 184 189 200 209 216 222 231 243 247 237 240 247 251 259 217 136 111 68 173 142 120 121 121 91 61 57 63
334 333 333 336 342 348 353 353 347 344 343 340 342 4 78 85 82 116 131 135 139 146 147 148 152 154 154 161 170 177 186 188 180 174 172 169 170 174 180 188 190 181 176 180 184 183 181 182 189 203 220 238 243 234 229 233 248 255 249 237 238 164 124 119 149 166 148 40 25 125 108 70 59 66
343 344 340 341 346 349 349 348 343 341 341 341 343 351 12 66 84 93 114 125 132 139 141 145 154 160 163 174 188 195 198 200 194 183 175 171 171 177 185 189 185 177 174 175 178 177 174 174 178 189 212 239 248 240 231 225 225 242 257 228 193 123 105 123 122 137 141 49 26 91 103 72 54 57
350 351 347 347 349 349 345 344 343 343 343 343 343 346 351 356 12 62 105 116 128 143 147 152 163 171 177 185 196 202 202 200 196 186 176 170 172 178 184 187 183 176 175 178 176 170 168 170 175 181 193 201 209 233 230 213 209 217 240 217 171 115 102 134 115 104 116 88 60 72 90 75 54 52
353 352 351 350 348 346 344 343 344 344 343 341 340 342 344 343 341 342 146 147 147 159 164 167 173 180 184 186 192 203 205 198 187 180 174 169 169 174 180 184 181 176 178 180 171 164 166 171 177 188 200 195 200 206 152 175 198 206 206 199 169 132 163 168 139 120 106 85 72 77 94 101 93 66
352 350 350 349 346 345 345 345 346 344 342 341 341 340 338 339 344 346 340 181 182 183 182 183 183 182 186 189 191 201 205 193 176 171 171 166 164 171 177 179 176 175 179 181 168 163 169 175 179 193 204 194 201 209 151 147 195 202 194 189 168 123 46 329 148 137 126 117 113 95 94 127 154 129
353 350 347 346 346 346 346 347 346 343 341 341 342 341 338 338 342 344 340 318 243 196 190 196 191 184 186 191 193 197 200 189 173 167 169 167 165 170 173 171 173 177 180 178 168 164 172 180 184 194 201 205 268 235 157 146 164 186 185 183 168 128 48 19 81 124 119 119 155 172 162 177 194 201
350 349 348 347 346 345 345 345 345 343 342 341 340 340 339 335 334 335 334 330 315 242 201 199 195 187 184 189 192 191 191 185 175 169 171 173 172 175 176 173 174 179 179 174 171 171 180 190 191 192 197 213 305 106 131 130 130 157 174 182 176 138 69 45 55 68 65 32 330 250 196 194 199 116
346 346 346 346 345 344 344 344 343 342 341 341 340 340 339 336 333 330 331 335 333 298 213 193 188 184 180 183 190 188 183 180 174 168 172 178 178 181 185 180 174 180 183 177 175 183 190 192 189 186 191 205 179 122 124 120 120 143 161 176 171 127 94 79 61 48 46 27 357 347 194 172 147 96
344 343 343 343 343 342 342 342 342 342 341 340 340 340 338 336 336 336 340 348 350 339 259 192 179 181 182 183 189 189 182 179 173 165 167 175 179 181 186 185 184 190 186 175 176 185 182 176 176 178 180 189 194 173 142 127 132 135 142 157 156 129 109 108 92 53 41 41 31 15 2 185 137 97
343 342 341 341 340 340 341 341 341 342 341 340 339 340 339 337 339 342 344 348 350 346 331 213 175 176 183 184 187 190 182 177 175 171 171 176 181 181 181 186 199 204 188 170 169 171 163 158 165 170 172 187 211 210 137 116 126 135 140 147 148 139 121 103 88 68 50 49 62 63 42 30 80 102
341 340 339 339 339 339 340 341 341 342 342 341 340 341 341 339 339 341 341 339 343 347 345 332 180 175 182 185 188 190 182 172 171 174 178 183 186 187 187 192 204 207 183 158 150 151 150 153 162 166 170 188 205 180 124 118 131 148 151 148 144 140 136 123 102 87 73 65 67 67 63 69 85 99
339 339 338 339 339 339 340 341 342 342 343 343 342 342 343 342 341 341 341 340 342 348 352 352 343 179 176 175 175 171 161 153 154 160 166 170 172 176 180 182 185 181 157 138 133 138 146 153 160 165 169 178 182 150 126 127 137 145 144 146 147 146 147 150 129 103 88 79 72 63 63 78 89 91